Theta_e
337 353 365 363 360 359 359 359 361 361 361 362 361 359 359 360 359 358 357 357 358 355 355 355 354 355 356 356 356 356 356 356 356 355 355 355 356 356 354 352 352 348 349
345 356 365 363 360 359 360 360 361 362 362 361 359 359 358 358 357 357 357 357 357 355 354 354 354 355 355 354 353 352 352 353 352 349 348 348 349 353 357 356 354 349 352
350 357 361 363 360 360 361 361 361 362 361 360 359 359 357 357 356 356 357 357 355 353 353 354 354 352 351 348 348 350 350 350 350 348 347 334 336 347 353 359 358 356 355
353 355 358 362 360 360 361 361 362 361 360 359 359 358 357 356 354 354 354 354 353 353 353 352 351 350 349 348 347 347 349 349 350 348 332 327 326 339 350 362 361 359 357
351 354 358 362 360 361 360 360 361 361 360 359 359 357 356 354 354 354 353 353 352 352 351 351 351 349 348 347 349 349 350 351 350 343 326 322 323 330 346 361 361 360 359
344 351 361 362 361 361 359 360 361 360 359 358 357 356 354 353 353 352 352 353 352 352 351 351 351 350 349 349 350 350 350 350 350 333 330 327 324 333 343 352 361 360 359
343 350 357 362 362 361 359 359 360 360 360 359 356 354 353 353 352 352 352 352 351 351 350 349 351 350 347 348 348 349 349 350 339 331 329 325 322 335 340 347 359 360 356
345 349 355 361 361 361 360 360 360 359 358 358 357 356 354 354 353 353 353 353 353 353 352 350 349 348 347 347 349 350 352 352 345 337 334 331 337 345 349 351 351 359 354
346 348 350 353 357 360 360 359 358 357 357 356 355 355 354 354 353 353 353 354 355 355 352 348 347 347 348 350 351 352 350 345 334 335 335 333 342 349 346 353 353 356 351
343 344 344 347 348 350 351 357 357 356 355 354 354 353 353 354 354 354 353 353 356 356 353 350 349 350 351 350 345 343 343 334 324 328 329 330 337 342 343 339 346 347 348
339 340 341 343 344 344 345 350 355 353 354 354 353 354 351 344 343 346 350 355 356 356 354 351 347 343 339 333 334 334 329 319 317 318 318 329 334 333 334 338 339 342 341
333 338 339 341 342 342 346 344 344 345 345 344 343 341 341 337 337 344 347 350 349 341 339 335 333 331 326 319 319 322 316 314 315 315 315 330 331 332 333 335 336 334 334
335 337 339 339 339 341 341 341 340 339 339 339 338 331 329 332 330 330 328 328 325 328 321 321 320 319 316 316 315 314 314 313 313 314 317 328 329 331 331 332 332 333 338
335 337 338 337 337 336 338 340 338 336 336 335 331 329 331 329 327 326 324 321 319 318 316 316 315 315 314 315 313 313 312 312 312 313 314 325 327 329 330 331 331 332 333
334 335 337 337 336 337 337 338 336 334 335 331 330 332 331 327 324 324 320 317 316 316 315 314 314 313 312 312 312 312 312 311 311 312 311 322 325 326 329 329 330 331 331
334 333 335 335 336 336 338 333 333 335 332 332 330 330 327 323 321 320 316 315 314 314 314 313 312 311 309 310 311 311 310 310 310 311 310 310 321 323 325 326 327 329 329
328 330 331 335 335 335 336 333 333 332 333 330 327 325 323 320 319 318 316 314 314 313 313 312 311 311 309 309 308 309 309 310 310 309 309 308 310 318 320 322 324 325 326
328 328 331 337 334 334 332 331 331 333 329 326 323 322 323 322 320 318 316 315 315 312 312 310 308 306 306 306 305 306 307 308 308 309 307 307 308 310 312 319 321 321 322
330 330 332 332 331 332 332 332 331 328 325 322 322 322 322 322 321 317 315 315 312 310 310 308 306 305 304 305 306 306 306 305 306 308 306 306 306 307 307 313 318 318 320
340 337 334 335 333 331 329 327 326 325 324 323 322 321 321 321 320 318 315 312 310 309 309 306 304 305 304 304 308 306 305 304 304 305 305 307 305 306 306 307 307 309 318
338 338 337 336 333 332 328 325 323 321 321 322 323 324 321 321 318 313 311 311 310 308 307 306 305 304 304 304 301 302 302 303 303 304 305 304 305 306 306 307 306 308 308
335 335 334 335 335 333 331 329 326 324 323 322 321 320 321 318 313 312 311 309 308 307 305 305 304 303 304 304 306 301 296 301 302 307 305 304 304 304 305 307 306 307 307
330 334 332 330 330 330 329 329 327 324 323 319 319 318 316 314 312 311 311 308 307 305 304 303 303 302 301 303 305 306 301 298 302 305 305 303 303 302 303 306 308 308 307
329 327 326 327 328 329 329 327 325 322 318 315 313 310 310 311 311 312 310 309 307 305 304 303 306 303 302 301 302 305 305 303 299 299 305 303 306 303 303 304 306 307 307
325 323 321 320 320 322 321 322 319 312 309 308 305 305 305 305 308 310 308 307 307 305 304 303 303 302 302 302 301 306 303 301 301 302 298 298 302 303 302 301 304 303 305
321 319 317 316 314 313 313 312 310 308 306 305 303 302 301 302 302 305 304 302 302 302 303 303 303 302 301 302 302 300 298 298 297 298 299 299 300 299 300 300 300 299 301
Wind_Speed
6 7 9 9 8 11 13 14 14 14 13 13 13 14 13 12 12 12 11 10 9 9 9 9 9 8 8 7 7 6 6 6 5 3 2 2 4 6 7 7 6 5 8
12 9 11 9 10 12 13 13 13 12 12 12 13 13 12 11 11 10 9 8 8 8 7 7 7 6 6 6 6 6 6 5 4 4 5 5 7 8 10 11 10 8 11
12 7 10 10 11 12 13 12 12 12 11 12 12 11 10 10 9 8 7 6 6 6 6 5 5 5 4 4 4 4 4 4 4 5 6 4 5 9 10 13 15 12 12
11 7 8 12 12 13 13 12 11 12 11 11 10 10 8 8 7 6 5 4 4 4 4 3 2 2 2 3 4 5 6 7 7 7 2 4 6 11 12 11 16 13 12
8 7 9 13 12 12 12 11 11 11 10 10 9 8 7 6 5 4 3 2 2 2 1 0 1 2 3 3 4 5 6 8 9 8 1 3 4 8 14 8 13 14 13
5 6 12 12 11 11 11 11 10 10 9 9 8 7 6 5 4 3 2 1 1 2 2 3 4 5 5 6 7 8 9 10 12 7 5 3 4 10 13 10 13 14 13
7 5 8 11 11 11 12 12 10 10 8 8 7 7 6 6 5 5 5 4 4 4 5 5 5 6 7 7 8 9 10 12 7 6 6 4 5 12 13 14 13 16 14
11 8 8 13 12 12 12 11 10 9 8 8 7 7 6 6 6 6 5 6 6 7 6 6 7 8 9 10 11 12 13 14 8 6 6 5 10 13 15 12 13 14 9
7 9 8 9 12 14 12 12 11 10 9 8 8 6 6 6 6 6 7 7 8 8 7 7 8 9 11 12 12 12 13 15 7 5 7 5 13 10 17 13 7 6 6
7 6 7 7 7 7 7 14 12 11 10 8 7 7 7 6 7 7 8 8 9 9 8 9 10 11 10 11 11 13 14 14 7 6 4 3 16 14 12 15 9 4 5
7 6 6 7 7 7 6 8 11 13 11 10 8 8 6 3 4 6 6 8 9 10 9 11 14 15 14 14 15 16 14 5 6 4 4 14 16 17 17 15 12 6 6
7 7 7 8 10 8 7 6 5 5 4 4 4 4 2 2 3 5 7 9 10 13 15 14 14 14 11 4 4 10 4 6 5 5 3 15 15 16 16 14 7 8 10
12 8 11 10 7 9 6 4 3 2 3 3 5 2 1 2 4 4 3 5 4 11 5 7 7 5 6 5 5 5 5 5 3 3 8 15 15 14 14 14 14 14 14
11 15 12 8 8 7 5 5 5 3 2 2 2 3 4 3 4 4 4 4 4 4 5 5 3 4 5 5 6 5 5 4 3 3 6 16 15 15 15 14 14 14 8
11 12 12 11 10 9 7 5 6 5 3 2 4 5 5 4 5 4 4 4 4 3 3 4 4 4 5 6 6 6 6 5 6 3 3 14 12 15 13 12 12 12 11
11 10 9 11 11 10 9 8 7 5 5 3 4 5 6 4 5 4 4 4 4 4 4 4 4 4 3 4 6 6 5 5 5 5 4 5 13 13 14 15 14 14 14
10 7 11 12 10 10 9 7 4 5 6 5 5 6 6 5 5 5 4 4 3 3 4 4 4 3 4 4 5 4 4 5 5 5 4 4 5 12 15 15 16 15 14
11 12 11 11 8 6 4 4 4 4 6 5 4 4 5 6 6 5 4 4 3 4 3 3 3 3 4 4 4 5 4 4 5 4 4 4 4 4 9 15 15 15 15
14 10 7 8 8 8 7 6 6 7 7 5 4 4 5 5 5 4 4 3 4 3 3 3 2 2 3 4 6 5 4 2 4 4 4 4 4 4 3 11 16 16 16
9 9 9 9 10 8 7 7 6 7 5 4 4 4 5 3 4 3 3 4 4 4 3 3 2 2 1 3 6 6 5 3 2 4 4 4 4 5 5 6 5 7 16
10 10 6 11 8 7 4 5 4 4 3 2 3 5 3 2 4 4 2 4 4 3 0 1 1 2 3 1 3 4 4 4 4 4 4 4 6 6 7 5 4 4 5
9 9 9 9 8 5 3 4 4 3 2 1 1 4 2 3 3 3 3 3 2 2 3 3 2 3 2 1 2 1 4 5 3 8 4 4 6 5 6 7 6 6 6
10 8 8 7 7 6 6 6 6 4 4 1 2 1 1 3 4 2 3 2 2 1 2 2 2 2 3 3 2 3 3 3 9 1 5 4 6 4 5 6 7 5 6
8 7 7 7 6 6 6 7 6 3 2 1 2 3 4 6 3 3 3 0 0 2 3 3 2 2 1 4 3 3 4 4 4 7 2 5 4 5 6 5 7 5 6
7 7 7 7 7 6 6 6 5 6 4 2 3 6 7 5 6 4 4 6 5 3 4 5 5 5 2 3 3 3 2 3 4 5 11 4 3 4 5 4 5 5 7
6 8 6 7 7 7 7 7 8 8 6 5 4 3 2 2 3 6 7 6 5 5 5 5 5 5 4 4 3 3 3 3 3 3 7 9 10 5 4 4 5 4 5
Wind_Direction
196 159 183 172 157 127 120 116 114 113 111 110 106 102 95 89 88 90 92 91 90 86 83 82 76 69 67 63 62 57 55 55 57 49 16 318 269 244 238 230 223 200 198
142 153 164 166 153 135 127 125 123 120 117 109 106 101 96 96 98 95 93 93 93 91 89 84 83 77 61 49 43 35 32 31 23 7 351 324 304 279 249 233 226 199 198
131 146 149 158 154 141 137 135 132 125 119 112 112 108 103 99 101 100 96 93 91 89 87 82 74 66 52 37 29 21 15 359 342 338 343 335 310 292 276 236 228 215 208
138 138 138 155 154 148 142 139 133 126 124 122 118 115 111 107 103 100 91 79 86 89 85 82 68 40 11 357 358 351 342 332 325 326 17 326 320 312 328 290 218 218 219
144 139 151 154 153 150 143 137 130 132 131 131 128 127 126 122 115 107 96 80 93 115 103 356 320 314 313 320 324 324 323 321 321 332 337 299 301 309 320 279 212 216 216
138 137 154 151 147 142 140 138 140 141 142 142 142 145 144 138 137 149 165 182 218 252 269 292 303 308 313 318 326 326 323 321 321 321 321 274 289 300 307 292 229 226 218
148 132 140 144 141 140 148 151 149 150 157 160 162 166 167 171 182 196 206 215 237 258 267 272 276 286 301 313 321 326 324 318 322 316 318 313 272 276 296 288 256 228 219
150 143 146 145 147 152 159 159 162 167 174 178 180 185 185 198 210 223 232 243 253 260 272 274 285 296 309 333 337 332 332 342 345 332 323 316 314 314 312 273 269 246 234
152 148 149 154 163 161 163 169 175 180 187 191 192 197 206 216 229 244 253 262 266 271 278 295 309 318 336 342 343 352 359 6 6 340 336 336 320 23 18 6 283 242 212
143 147 162 160 157 164 172 180 182 189 193 196 199 208 220 232 245 255 260 275 288 295 308 319 329 336 349 11 13 4 3 9 353 348 340 325 348 336 352 354 342 302 254
164 174 166 169 168 169 173 190 190 193 196 196 204 215 222 241 270 287 295 298 304 315 338 10 30 25 21 11 5 9 13 5 357 346 331 332 333 326 319 317 302 308 309
185 199 198 182 179 172 182 192 182 199 194 194 206 215 237 265 292 311 334 326 19 43 51 32 31 28 23 9 10 16 7 353 347 334 332 335 330 320 311 304 305 299 289
189 192 200 196 185 176 185 169 184 198 195 199 207 188 155 36 44 57 51 44 43 43 34 27 27 30 25 21 11 6 355 347 346 333 335 337 333 325 317 306 296 291 286
182 196 196 193 191 191 164 172 180 190 206 195 171 110 98 84 77 68 72 58 48 31 35 36 36 29 28 18 9 346 340 343 332 326 333 333 333 326 319 309 298 291 306
205 195 201 183 189 189 187 181 176 180 179 169 129 115 117 117 92 86 79 66 52 46 58 49 44 33 21 2 350 345 341 343 335 326 316 343 348 345 350 336 330 323 315
200 196 184 194 193 192 189 182 189 155 140 140 115 123 122 121 119 109 92 68 55 48 43 53 47 33 18 356 344 338 324 317 320 325 322 334 358 3 357 347 342 332 321
197 180 187 194 190 192 210 190 156 148 132 126 127 116 114 108 105 105 96 78 77 63 70 47 31 30 23 354 327 320 306 317 314 317 329 334 343 5 2 352 343 329 320
169 179 179 192 185 182 107 92 75 77 102 105 107 97 102 96 88 87 82 67 75 55 57 42 25 6 12 350 316 301 300 322 311 318 333 339 338 346 342 343 345 340 325
168 160 127 104 100 109 105 92 88 98 95 92 92 96 90 85 91 101 101 104 80 72 52 24 358 44 353 332 304 299 299 302 292 326 333 328 322 316 299 333 344 343 336
96 108 116 111 114 103 89 87 85 85 72 86 93 86 80 77 102 113 108 99 80 64 45 16 351 326 234 266 309 312 305 307 280 300 310 324 322 318 312 315 311 319 334
53 80 98 116 105 102 92 101 82 109 114 82 98 95 99 117 92 80 97 85 67 72 14 8 303 305 294 285 337 322 315 291 268 276 324 322 319 312 306 308 297 304 303
79 78 73 91 100 106 101 103 120 140 103 111 140 90 92 105 120 134 113 100 108 96 19 10 13 324 294 339 314 319 320 322 349 323 294 290 282 290 300 304 295 290 289
86 83 91 90 103 107 109 101 88 81 72 85 62 88 43 40 50 111 126 137 165 111 25 343 311 338 315 313 286 270 319 303 316 227 258 282 285 300 295 301 294 284 288
103 89 82 86 90 96 118 124 126 128 137 55 59 34 31 13 17 72 82 186 57 32 343 308 304 278 237 286 319 246 248 250 302 311 255 267 272 294 298 302 300 303 311
96 104 90 90 79 77 75 86 103 88 85 90 66 52 45 33 41 47 37 25 8 338 310 304 300 284 248 261 235 286 278 270 260 268 303 288 291 271 276 287 289 302 323
103 79 97 99 78 76 84 80 94 104 98 70 49 62 14 7 21 25 13 5 339 313 292 283 282 269 291 274 279 277 230 255 265 263 285 299 299 274 278 281 292 306 307